Location: Newark
(45.5000°N, 11.4167°E)
Time: 01:08:21
(UTC+00:00)

Transit 2A Rocket - Pass Details

Date: 01 September 2019
Orbit: 594 x 910 km, 66.7° (Epoch: 17 October)

Event Time Altitude Azimuth Distance (km) Brightness Sun altitude
Rises 15:56:37 0° 206° (SSW) 3,427 8.9 19.4°
Reaches altitude 10° 15:59:10 10° 205° (SSW) 2,455 8.2 19.0°
Maximum altitude 16:04:50 77° 120° (ESE) 818 5.4 18.0°
Drops below altitude 10° 16:10:01 10° 36° (NE) 2,262 7.1 17.1°
Sets 16:12:18 0° 35° (NE) 3,138 7.8 16.7°
